Date String (YYYY-MM-DD hh:mm:ss) UTC,Instrument flags,Ambient pressure (hPa),Sample flow (lpm),Bypass flow (lpm),Sample temperature (°C),Ambient temperature (°C),ASC tube jacket temperature (°C),LED temperature (°C),Box temperature (°C),Sample RH (%),Span deviation,Mass concentration (μg/m³),Mass concentration (μg/m³),Mass concentration (μg/m³)
DateTimeUTC,F1_M11,P_M11,Q1_M11,Q2_M11,T1_M11,T2_M11,T3_M11,T4_M11,T5_M11,U1_M11,ZSPAN_M11,X0_M11,X2_M11,X1_M11
2021-09-20 03:00:00,,0820.3,5.00,0.00,29.5,26.7,00.0,38.4,30.9,17.8,0001.9,0009.06,0005.14,0004.72
2021-09-20 03:01:00,,0820.3,5.00,0.00,29.3,26.2,00.0,38.4,30.8,18.0,0001.8,0008.91,0005.13,0004.73
2021-09-20 03:02:00,,0820.3,5.00,0.00,29.3,26.5,00.0,38.4,30.8,18.0,0001.8,0008.46,0005.16,0004.75
2021-09-20 03:03:00,,0820.3,5.00,0.00,29.2,26.9,00.0,38.4,30.9,18.1,0001.9,0008.40,0005.18,0004.76
2021-09-20 03:04:00,,0820.3,5.01,0.00,29.2,27.2,00.0,38.4,30.9,18.1,0001.7,0008.45,0005.17,0004.75
2021-09-20 03:05:00,,0820.3,5.01,0.00,29.3,27.6,00.0,38.4,31.0,18.1,0002.1,0008.68,0005.18,0004.74
2021-09-20 03:06:00,,0820.3,4.98,0.00,29.3,27.8,00.0,38.4,31.1,18.0,0002.3,0009.03,0005.19,0004.72
2021-09-20 03:07:00,,0820.2,5.01,0.00,29.3,28.0,00.0,38.4,31.1,18.0,0001.7,0009.06,0005.17,0004.72
2021-09-20 03:08:00,,0820.3,4.99,0.00,29.4,28.2,00.0,38.4,31.2,17.9,0001.8,0009.02,0005.14,0004.70
2021-09-20 03:09:00,,0820.3,5.00,0.00,29.4,28.3,00.0,38.4,31.3,17.9,0001.6,0009.09,0005.09,0004.69
2021-09-20 03:10:00,,0820.3,5.01,0.00,29.5,28.5,00.0,38.4,31.3,17.8,0001.6,0009.76,0005.08,0004.68
2021-09-20 03:11:00,,0820.3,4.99,0.00,29.5,28.6,00.0,38.4,31.3,17.8,0001.8,0009.99,0005.07,0004.68
2021-09-20 03:12:00,,0820.4,5.03,0.00,29.5,28.6,00.0,38.5,31.4,17.8,0001.6,0010.02,0005.10,0004.69
2021-09-20 03:13:00,,0820.4,4.99,0.00,29.6,28.7,00.0,38.5,31.4,17.8,0001.4,0009.97,0005.07,0004.68
2021-09-20 03:14:00,,0820.4,5.02,0.00,29.6,28.3,00.0,38.5,31.3,17.8,0001.7,0009.89,0005.06,0004.68
2021-09-20 03:15:00,,0820.4,4.99,0.00,29.5,26.5,00.0,38.5,30.8,17.9,0001.8,0009.84,0005.09,0004.70
2021-09-20 03:16:00,,0820.3,5.00,0.00,29.4,26.2,00.0,38.5,30.7,18.1,0001.4,0009.69,0005.09,0004.71
2021-09-20 03:17:00,,0820.3,5.01,0.00,29.3,26.5,00.0,38.5,30.8,18.1,0001.1,0009.37,0005.10,0004.71
2021-09-20 03:18:00,,0820.3,4.99,0.00,29.3,26.9,00.0,38.4,30.9,18.2,0001.0,0009.39,0005.15,0004.73
2021-09-20 03:19:00,,0820.3,5.00,0.00,29.3,27.2,00.0,38.4,31.0,18.2,0000.8,0009.43,0005.17,0004.75
2021-09-20 03:20:00,,0820.3,5.00,0.00,29.3,27.6,00.0,38.4,31.1,18.1,0001.1,0009.34,0005.21,0004.75
2021-09-20 03:21:00,,0820.3,5.01,0.00,29.3,27.8,00.0,38.4,31.1,18.1,0001.4,0008.70,0005.24,0004.76
2021-09-20 03:22:00,,0820.3,4.99,0.00,29.4,28.0,00.0,38.4,31.1,18.1,0001.7,0008.58,0005.29,0004.77
2021-09-20 03:23:00,,0820.3,5.00,0.00,29.4,28.2,00.0,38.4,31.2,18.1,0002.0,0008.69,0005.32,0004.78
2021-09-20 03:24:00,,0820.2,4.99,0.00,29.4,28.3,00.0,38.4,31.2,18.0,0002.1,0008.70,0005.31,0004.78
2021-09-20 03:25:00,,0820.3,5.01,0.00,29.5,28.4,00.0,38.5,31.3,18.0,0001.8,0008.78,0005.33,0004.78
2021-09-20 03:26:00,,0820.2,4.99,0.00,29.5,28.5,00.0,38.5,31.4,18.0,0001.7,0008.68,0005.31,0004.77
2021-09-20 03:27:00,,0820.3,5.00,0.00,29.6,28.6,00.0,38.5,31.4,18.0,0001.7,0008.56,0005.32,0004.78
2021-09-20 03:28:00,,0820.2,5.01,0.00,29.6,28.7,00.0,38.5,31.4,17.9,0001.8,0008.54,0005.32,0004.79
2021-09-20 03:29:00,,0820.3,4.99,0.00,29.6,28.2,00.0,38.5,31.3,17.9,0002.1,0008.43,0005.29,0004.79
2021-09-20 03:30:00,,0820.2,5.00,0.00,29.5,26.5,00.0,38.5,30.9,18.0,0002.3,0008.53,0005.33,0004.81
2021-09-20 03:31:00,,0820.2,5.00,0.00,29.4,26.2,00.0,38.5,30.8,18.1,0002.2,0008.47,0005.31,0004.83
2021-09-20 03:32:00,,0820.3,5.01,0.00,29.3,26.5,00.0,38.5,30.8,18.2,0001.9,0008.41,0005.29,0004.84
2021-09-20 03:33:00,,0820.2,5.00,0.00,29.3,26.9,00.0,38.4,30.9,18.2,0002.0,0008.22,0005.24,0004.85
2021-09-20 03:34:00,,0820.2,5.01,0.00,29.3,27.3,00.0,38.4,30.9,18.2,0002.2,0008.04,0005.21,0004.85
2021-09-20 03:35:00,,0820.2,5.00,0.00,29.3,27.6,00.0,38.4,31.0,18.2,0001.9,0007.97,0005.21,0004.87
2021-09-20 03:36:00,,0820.2,5.01,0.00,29.3,27.8,00.0,38.4,31.1,18.2,0001.4,0007.93,0005.22,0004.88
2021-09-20 03:37:00,,0820.2,4.99,0.00,29.3,28.0,00.0,38.4,31.1,18.2,0001.3,0007.91,0005.20,0004.88
2021-09-20 03:38:00,,0820.2,5.01,0.00,29.4,28.2,00.0,38.4,31.2,18.2,0001.4,0007.90,0005.18,0004.88
2021-09-20 03:39:00,,0820.2,4.99,0.00,29.4,28.3,00.0,38.4,31.2,18.1,0001.3,0007.88,0005.17,0004.87
2021-09-20 03:40:00,,0820.2,5.01,0.00,29.5,28.4,00.0,38.5,31.3,18.1,0001.4,0007.86,0005.14,0004.86
2021-09-20 03:41:00,,0820.2,4.99,0.00,29.5,28.5,00.0,38.5,31.3,18.1,0001.1,0007.85,0005.13,0004.85
2021-09-20 03:42:00,,0820.2,5.00,0.00,29.5,28.6,00.0,38.5,31.4,18.0,0001.2,0007.97,0005.15,0004.85
2021-09-20 03:43:00,,0820.2,5.00,0.00,29.6,28.7,00.0,38.5,31.4,18.0,0001.3,0008.02,0005.16,0004.85
2021-09-20 03:44:00,,0820.2,5.00,0.00,29.6,28.7,00.0,38.6,31.5,17.9,0001.1,0008.02,0005.17,0004.85
2021-09-20 03:45:00,,0820.2,5.00,0.00,29.6,28.2,00.0,38.6,31.3,17.9,0001.0,0008.04,0005.15,0004.86
2021-09-20 03:46:00,,0820.2,4.97,0.00,29.5,26.1,00.0,38.6,30.8,18.0,0001.3,0008.09,0005.16,0004.87
2021-09-20 03:47:00,,0820.2,5.01,0.00,29.3,25.0,00.0,38.5,30.5,18.2,0001.9,0008.16,0005.20,0004.88
2021-09-20 03:48:00,,0820.2,4.99,0.00,29.2,25.4,00.0,38.5,30.5,18.3,0002.1,0008.22,0005.24,0004.91
2021-09-20 03:49:00,,0820.2,5.02,0.00,29.1,25.9,00.0,38.4,30.6,18.4,0002.0,0008.22,0005.25,0004.92
2021-09-20 03:50:00,,0820.2,5.00,0.00,29.1,26.4,00.0,38.4,30.7,18.5,0002.2,0008.23,0005.29,0004.97
2021-09-20 03:51:00,,0820.2,4.99,0.00,29.1,26.8,00.0,38.3,30.8,18.5,0002.3,0008.70,0005.34,0004.99
2021-09-20 03:52:00,,0820.2,5.00,0.00,29.1,27.2,00.0,38.3,30.8,18.5,0002.6,0008.88,0005.36,0005.01
2021-09-20 03:53:00,,0820.2,5.00,0.00,29.1,27.5,00.0,38.3,30.9,18.5,0002.6,0008.80,0005.37,0005.01
2021-09-20 03:54:00,,0820.2,5.00,0.00,29.2,27.7,00.0,38.3,31.0,18.4,0002.7,0008.94,0005.41,0005.00
2021-09-20 03:55:00,,0820.2,5.00,0.00,29.2,27.9,00.0,38.3,31.0,18.4,0002.9,0009.09,0005.44,0005.00
2021-09-20 03:56:00,,0820.1,5.00,0.00,29.2,28.1,00.0,38.3,31.1,18.4,0002.7,0009.19,0005.50,0005.04
2021-09-20 03:57:00,,0820.2,4.99,0.00,29.3,28.2,00.0,38.3,31.1,18.3,0002.7,0009.22,0005.53,0005.07
2021-09-20 03:58:00,,0820.1,5.02,0.00,29.3,28.3,00.0,38.3,31.1,18.3,0002.6,0009.15,0005.51,0005.08
2021-09-20 03:59:00,,0820.1,5.00,0.00,29.4,28.4,00.0,38.4,31.2,18.2,0002.4,0009.15,0005.51,0005.09
